DW4657 Weather Reports


Display with metric or nautical units.
time (UTC)temp
F
wind
direction
speed
MPH
gust
MPH
rain 1hr
in
rain 24hr
in
rain mn
in
humidity
%
barometer
mb
20181219080047 21 321 1.0 3.0 0.00 0.00 0.00 68 1018.8
20181219075046 21 331 0.0 3.0 0.00 0.00 0.00 67 1018.8
20181219074046 21 315 0.0 2.0 0.00 0.00 0.00 67 1018.8
20181219073045 22 323 1.0 4.0 0.00 0.00 0.00 66 1018.7
20181219072048 22 315 0.0 6.0 0.00 0.00 0.00 65 1018.7
20181219071046 22 337 0.0 2.0 0.00 0.00 0.00 66 1018.9
20181219070045 22 357 2.0 4.0 0.00 0.00 0.00 66 1018.6
20181219065045 22 315 0.0 3.0 0.00 0.00 0.00 66 1018.4
20181219064045 22 317 1.0 4.0 0.00 0.00 0.00 66 1018.4
20181219063045 22 321 1.0 3.0 0.00 0.00 0.00 65 1018.0
20181219062045 22 310 1.0 7.0 0.00 0.00 0.00 65 1018.2
20181219061045 22 348 1.0 3.0 0.00 0.00 0.00 65 1017.9
20181219060046 22 307 3.0 4.0 0.00 0.00 0.00 65 1017.9
20181219055044 22 319 2.0 3.0 0.00 0.00 0.00 66 1017.9
20181219054044 22 329 2.0 3.0 0.00 0.00 0.00 65 1018.2
20181219053044 22 355 2.0 3.0 0.00 0.00 0.00 65 1018.0
20181219052044 22 298 0.0 2.0 0.00 0.00 0.00 66 1017.9
20181219051044 23 315 1.0 3.0 0.00 0.00 0.00 65 1017.7
20181219050044 23 318 0.0 4.0 0.00 0.00 0.00 63 1017.6
20181219045044 23 349 2.0 4.0 0.00 0.00 0.00 63 1017.4
20181219044044 23 16 1.0 6.0 0.00 0.00 0.00 63 1017.6
20181219043044 24 307 1.0 8.0 0.00 0.00 0.00 62 1017.5
20181219042044 24 317 1.0 4.0 0.00 0.00 0.00 61 1017.7
20181219041044 24 329 3.0 8.0 0.00 0.00 0.00 61 1017.6
20181219040044 24 328 2.0 5.0 0.00 0.00 0.00 61 1017.5
20181219035044 24 332 2.0 6.0 0.00 0.00 0.00 60 1017.6
20181219034044 24 325 3.0 7.0 0.00 0.00 0.00 60 1017.4
20181219033044 24 311 1.0 4.0 0.00 0.00 0.00 60 1017.6
20181219032043 24 331 2.0 5.0 0.00 0.00 0.00 60 1017.6
20181219031043 25 331 0.0 4.0 0.00 0.00 0.00 60 1017.9
20181219030043 25 312 2.0 4.0 0.00 0.00 0.00 60 1017.9
20181219025043 25 351 2.0 5.0 0.00 0.00 0.00 59 1017.8
20181219024043 25 327 0.0 7.0 0.00 0.00 0.00 59 1017.7
20181219023043 25 330 0.0 6.0 0.00 0.00 0.00 59 1017.6
20181219022043 25 329 2.0 7.0 0.00 0.00 0.00 58 1017.8
20181219021043 26 13 2.0 9.0 0.00 0.00 0.00 58 1017.8
20181219020043 26 309 1.0 6.0 0.00 0.00 0.00 57 1017.7
20181219015043 26 308 0.0 7.0 0.00 0.00 0.00 57 1017.7
20181219014043 26 331 3.0 8.0 0.00 0.00 0.00 57 1017.4
20181219013043 26 341 1.0 6.0 0.00 0.00 0.00 57 1017.4
20181219012043 26 355 2.0 5.0 0.00 0.00 0.00 56 1017.2
20181219011043 26 333 2.0 8.0 0.00 0.00 0.00 57 1017.2
20181219010043 26 350 0.0 12.0 0.00 0.00 0.00 57 1017.4
20181219005042 27 332 5.0 9.0 0.00 0.00 0.00 55 1017.2
20181219004043 26 334 1.0 5.0 0.00 0.00 0.00 56 1017.2
20181219003043 27 344 3.0 7.0 0.00 0.00 0.00 56 1017.1
20181219002042 27 350 6.0 6.0 0.00 0.00 0.00 55 1017.1
20181219001042 27 312 4.0 10.0 0.00 0.00 0.00 54 1016.9
20181219000042 27 326 3.0 11.0 0.00 0.00 0.00 54 1016.8
20181218235042 27 310 1.0 13.0 0.00 0.00 0.00 55 1016.8
20181218234042 27 22 3.0 7.0 0.00 0.00 0.00 55 1016.7
20181218233042 28 284 4.0 8.0 0.00 0.00 0.00 54 1016.5
20181218232042 28 299 5.0 9.0 0.00 0.00 0.00 53 1016.3
20181218231042 28 325 3.0 8.0 0.00 0.00 0.00 54 1016.2
20181218230042 28 302 2.0 8.0 0.00 0.00 0.00 54 1016.2
20181218225042 28 322 2.0 8.0 0.00 0.00 0.00 54 1016.1
20181218224042 28 331 3.0 6.0 0.00 0.00 0.00 54 1015.9
20181218223042 28 319 4.0 9.0 0.00 0.00 0.00 53 1015.8
20181218222042 28 342 5.0 9.0 0.00 0.00 0.00 53 1015.6
20181218221042 28 317 1.0 13.0 0.00 0.00 0.00 53 1015.3
20181218220042 29 328 4.0 6.0 0.00 0.00 0.00 53 1015.0
20181218215042 29 293 2.0 9.0 0.00 0.00 0.00 53 1014.9
20181218214041 29 333 3.0 9.0 0.00 0.00 0.00 52 1014.7
20181218213042 29 299 3.0 11.0 0.00 0.00 0.00 52 1014.4
20181218212041 29 301 5.0 7.0 0.00 0.00 0.00 51 1014.4
20181218211041 29 322 4.0 8.0 0.00 0.00 0.00 51 1014.3
20181218210041 30 328 0.0 4.0 0.00 0.00 0.00 51 1014.2
20181218205041 30 325 0.0 4.0 0.00 0.00 0.00 51 1014.1
20181218204041 30 344 2.0 15.0 0.00 0.00 0.00 49 1014.0
20181218203041 31 331 2.0 13.0 0.00 0.00 0.00 49 1013.8
20181218202041 31 331 2.0 8.0 0.00 0.00 0.00 48 1014.0
20181218201041 31 340 3.0 9.0 0.00 0.00 0.00 47 1013.6
20181218200041 32 355 3.0 13.0 0.00 0.00 0.00 46 1013.5
20181218195042 32 334 3.0 14.0 0.00 0.00 0.00 45 1013.1
20181218194041 33 312 7.0 12.0 0.00 0.00 0.00 45 1012.9
20181218193041 33 312 5.0 10.0 0.00 0.00 0.00 45 1012.8
20181218192041 33 348 0.0 12.0 0.00 0.00 0.00 45 1012.4
20181218191041 33 343 6.0 12.0 0.00 0.00 0.00 44 1012.2
20181218190041 33 343 4.0 8.0 0.00 0.00 0.00 44 1011.9
20181218185041 33 343 5.0 11.0 0.00 0.00 0.00 44 1011.8
20181218184041 33 320 5.0 14.0 0.00 0.00 0.00 44 1011.6
20181218183041 33 49 3.0 13.0 0.00 0.00 0.00 45 1011.5
20181218182041 32 346 6.0 21.0 0.00 0.00 0.00 46 1011.4
20181218181041 32 311 6.0 10.0 0.00 0.00 0.00 46 1011.3
20181218180041 32 340 2.0 11.0 0.00 0.00 0.00 46 1011.2
20181218175041 32 357 8.0 12.0 0.00 0.00 0.00 46 1011.4
20181218174041 31 354 7.0 11.0 0.00 0.00 0.00 47 1011.2
20181218173041 32 327 1.0 11.0 0.00 0.00 0.00 46 1011.1
20181218172040 32 338 3.0 6.0 0.00 0.00 0.00 48 1011.0
20181218171040 31 317 4.0 11.0 0.00 0.00 0.00 46 1011.0
20181218170040 31 356 5.0 13.0 0.00 0.00 0.00 46 1010.9
20181218165040 30 332 2.0 12.0 0.00 0.00 0.00 48 1011.1
20181218164040 29 315 2.0 13.0 0.00 0.00 0.00 48 1011.1
20181218163040 29 307 5.0 15.0 0.00 0.00 0.00 49 1011.1
20181218162040 29 315 5.0 19.0 0.00 0.00 0.00 48 1011.2
20181218161040 29 322 7.0 12.0 0.00 0.00 0.00 50 1011.0
20181218160040 28 355 9.0 16.0 0.00 0.00 0.00 49 1011.1
20181218155040 28 313 6.0 15.0 0.00 0.00 0.00 50 1011.0
20181218154040 28 289 4.0 15.0 0.00 0.00 0.00 50 1011.0
20181218153039 28 34 4.0 16.0 0.00 0.00 0.00 51 1010.9
20181218152040 28 360 5.0 13.0 0.00 0.00 0.00 52 1010.9
20181218151039 27 286 7.0 14.0 0.00 0.00 0.00 51 1010.7
20181218150039 28 355 4.0 19.0 0.00 0.00 0.00 51 1010.6
20181218145039 27 338 5.0 15.0 0.00 0.00 0.00 52 1010.5
20181218144039 27 321 11.0 16.0 0.00 0.00 0.00 52 1010.7
20181218143039 27 303 4.0 11.0 0.00 0.00 0.00 52 1010.6
20181218142039 27 331 0.0 12.0 0.00 0.00 0.00 53 1010.4
20181218141040 26 358 1.0 16.0 0.00 0.00 0.00 53 1010.3
20181218140039 26 338 3.0 11.0 0.00 0.00 0.00 54 1010.2
20181218135039 26 321 4.0 12.0 0.00 0.00 0.00 53 1010.1
20181218134039 25 312 6.0 16.0 0.00 0.00 0.00 55 1010.0
20181218133039 25 304 6.0 17.0 0.00 0.00 0.00 56 1009.8
20181218132039 25 309 4.0 12.0 0.00 0.00 0.00 55 1009.5
20181218131039 25 312 3.0 13.0 0.00 0.00 0.00 57 1009.4
20181218130039 24 317 3.0 13.0 0.00 0.00 0.00 57 1009.1
20181218125039 24 326 5.0 17.0 0.00 0.00 0.00 57 1008.9
20181218124038 24 303 2.0 12.0 0.00 0.00 0.00 57 1008.7
20181218123038 24 349 5.0 14.0 0.00 0.00 0.00 58 1008.4
20181218122038 24 351 3.0 11.0 0.00 0.00 0.00 57 1008.2
20181218121038 24 344 1.0 12.0 0.00 0.00 0.00 57 1007.9
20181218120038 24 331 5.0 11.0 0.00 0.00 0.00 57 1007.8
20181218115038 24 338 7.0 13.0 0.00 0.00 0.00 57 1007.6
20181218114038 24 303 8.0 16.0 0.00 0.00 0.00 56 1007.6
20181218113038 24 6 3.0 16.0 0.00 0.00 0.00 56 1007.5
20181218112038 24 5 8.0 16.0 0.00 0.00 0.00 56 1007.5
20181218111038 24 346 6.0 12.0 0.00 0.00 0.00 56 1007.3
20181218110038 24 331 1.0 15.0 0.00 0.00 0.00 56 1007.3
20181218105038 24 301 8.0 16.0 0.00 0.01 0.00 55 1007.2
20181218104038 24 357 7.0 18.0 0.00 0.01 0.00 55 1007.0
20181218103037 24 316 3.0 18.0 0.00 0.01 0.00 54 1006.8
20181218102037 25 337 8.0 16.0 0.00 0.01 0.00 54 1006.6
20181218101037 25 338 9.0 18.0 0.00 0.01 0.00 54 1006.3
20181218100037 25 315 14.0 21.0 0.00 0.01 0.00 53 1006.1
20181218095037 25 334 6.0 16.0 0.00 0.01 0.00 53 1005.9
20181218094037 26 317 4.0 13.0 0.00 0.01 0.00 54 1005.8
20181218093037 26 360 13.0 15.0 0.00 0.01 0.00 54 1005.5
20181218092037 27 256 5.0 16.0 0.00 0.01 0.00 52 1005.4
20181218091037 28 7 9.0 18.0 0.00 0.01 0.00 53 1005.2
20181218090037 28 319 7.0 19.0 0.00 0.02 0.00 52 1004.6
20181218085037 29 324 7.0 26.0 0.00 0.02 0.00 53 1004.4
20181218084037 30 313 10.0 15.0 0.00 0.02 0.00 62 1004.4
20181218083036 30 351 1.0 19.0 0.00 0.03 0.00 61 1004.0
20181218082037 30 321 4.0 17.0 0.00 0.03 0.00 62 1003.9
20181218081036 31 336 5.0 13.0 0.00 0.03 0.00 65 1003.6